Date,TemperatureHighF,TemperatureAvgF,TemperatureLowF,DewpointHighF,DewpointAvgF,DewpointLowF,HumidityHigh,HumidityAvg,HumidityLow,PressureMaxIn,PressureMinIn,WindSpeedMaxMPH,WindSpeedAvgMPH,GustSpeedMaxMPH,PrecipitationSumIn
2013-3-1,43.4,36.4,30.5,35.0,30.6,26.0,99,81,60,29.82,29.65,2,0,8,0.00
2013-3-2,41.1,34.7,29.1,28.0,25.4,23.0,88,69,53,29.82,29.75,8,0,8,0.00
2013-3-3,36.4,30.6,26.2,28.0,21.0,17.0,88,68,52,29.81,29.74,5,0,8,0.00
2013-3-4,43.4,32.7,26.7,24.0,21.1,18.0,77,63,47,29.96,29.80,7,1,14,0.00
2013-3-5,50.0,37.1,26.8,29.0,25.8,22.0,84,65,43,30.10,29.95,4,0,6,0.00
2013-3-6,42.7,37.6,32.9,38.0,30.1,26.0,91,74,64,30.11,30.02,3,1,11,0.01
2013-3-7,41.5,35.6,32.2,33.0,28.5,25.0,95,77,55,30.17,30.08,5,1,12,0.04
2013-3-8,39.9,34.9,31.3,36.0,31.5,28.0,94,87,77,30.30,30.10,4,0,7,0.23
2013-3-9,57.9,39.6,27.6,30.0,26.5,24.0,89,63,31,30.38,30.29,4,0,6,0.03
2013-3-10,58.8,40.8,25.1,35.0,28.8,23.0,92,66,33,30.43,30.29,2,0,5,0.00
2013-3-11,51.6,43.1,34.1,43.0,37.6,32.0,92,81,68,30.33,30.11,3,0,5,0.00
2013-3-12,53.7,48.5,38.5,54.0,47.3,38.0,99,96,86,30.11,29.70,2,0,7,1.22
2013-3-13,50.5,39.2,30.1,37.0,30.5,23.0,99,75,36,29.92,29.82,2,0,6,0.00
2013-3-14,35.3,30.4,24.7,27.0,14.0,10.0,85,51,41,29.98,29.89,7,1,16,0.00
2013-3-15,40.7,32.8,22.2,32.0,20.4,10.0,84,61,43,30.00,29.75,4,0,7,0.00
2013-3-16,39.6,33.6,27.4,29.0,22.9,17.0,91,66,43,29.96,29.81,3,0,8,0.00
2013-3-17,41.0,30.4,20.5,25.0,14.8,9.0,90,57,27,30.38,29.97,4,0,10,0.00
2013-3-18,37.7,28.5,19.2,27.0,13.6,6.0,93,57,31,30.49,30.14,2,0,6,0.00
2013-3-19,40.6,33.2,28.3,37.0,31.5,27.0,97,93,83,30.13,29.75,3,0,5,0.25
2013-3-20,44.9,33.0,26.2,27.0,23.0,19.0,91,69,37,29.89,29.81,3,0,6,0.09
2013-3-21,43.9,31.3,20.0,23.0,18.3,14.0,93,62,33,29.88,29.68,2,0,6,0.01
2013-3-22,40.1,31.3,20.9,25.0,20.1,15.0,82,64,46,29.89,29.75,4,0,7,0.00
2013-3-23,46.3,37.3,31.2,26.0,22.0,18.0,76,56,35,29.96,29.84,4,1,14,0.00
2013-3-24,51.2,36.6,24.7,26.0,22.7,19.0,83,59,36,29.98,29.78,4,0,8,0.00
2013-3-25,48.8,39.9,32.9,29.0,26.0,24.0,71,58,43,29.80,29.53,3,1,9,0.00
2013-3-26,48.1,39.5,32.1,35.0,28.3,23.0,81,66,37,29.89,29.65,8,0,8,0.00
2013-3-27,56.1,41.0,26.9,31.0,24.8,21.0,84,56,29,29.99,29.89,7,0,13,0.00
2013-3-28,48.1,41.8,32.9,35.0,30.9,26.0,82,66,54,30.15,29.98,3,0,8,0.00
2013-3-29,53.5,43.4,32.4,33.0,29.7,27.0,83,60,38,30.18,30.10,2,0,7,0.00
2013-3-30,62.5,43.7,28.8,34.0,26.5,20.0,93,57,21,30.20,30.10,3,0,13,0.00
2013-3-31,59.3,41.3,27.6,42.0,31.7,24.0,97,72,32,30.17,29.76,3,0,6,0.19